Вернуться в каталог

STARLINK-38148

АктивенСвязьSSO
NORAD 100199·PAYLOAD·🇺🇸 United States

Запущен Aug 1, 2026 с Vandenberg Space Force Base

Loading…

Ближайшие Пролёты (ближайшие 24 часа)

TLE

СвежийSource: Space-Track

Эпоха: Sep 14, 2026, 12:23 UTC

1 A0199U 26175W   26257.51643419  .00210073  00000-0  13709-2 0  9990
2 A0199  97.2832  99.6482 0001303 108.3315 251.8092 15.75258153  8230

Отслеживайте STARLINK-38148 в реальном времени с AllMySat

Download on the App Store